Stations météo

réclame
Mon MeteoGroup
Culdrose, Grande-Bretagne (3809): Température de l'air & dewpoint: 14.07.2018 04:00:00 - 20.07.2018 04:00:00 (BST)Culdrose, Grande-Bretagne (3809): Vitesse du vent: 14.07.2018 04:00:00 - 20.07.2018 04:00:00 (BST)Culdrose, Grande-Bretagne (3809): Direction du vent: 14.07.2018 04:00:00 - 20.07.2018 04:00:00 (BST)Culdrose, Grande-Bretagne (3809): reduced air pressure: 14.07.2018 04:00:00 - 20.07.2018 04:00:00 (BST)Culdrose, Grande-Bretagne (3809): visibility: 14.07.2018 04:00:00 - 20.07.2018 04:00:00 (BST)Culdrose, Grande-Bretagne (3809): Quantités de précipitations: 14.07.2018 04:00:00 - 20.07.2018 04:00:00 (BST)
Date & Time tt [°C] td [°C] ff [km/h] ff [knt] dd ppp [hPa] vv [km] rr [mm]
20.07.2018 04:00:00 - - - - - - - -
20.07.2018 03:00:00 13,8 11,9 11 6 WNW 1018,4 25 0,0
20.07.2018 02:00:00 13,8 12,3 11 6 WNW 1018,6 25 0,0
20.07.2018 01:00:00 14,9 12,8 11 6 NW 1018,7 10 0,0
20.07.2018 00:00:00 14,9 12,9 11 6 NW 1018,9 25 0,0
19.07.2018 23:00:00 15,1 13,0 11 6 NW 1019,0 10 0,0
19.07.2018 22:00:00 16,1 12,1 11 6 NW 1019,2 25 0,0
19.07.2018 21:00:00 17,7 11,9 13 7 NW 1019,1 10 0,0
19.07.2018 20:00:00 18,9 11,8 16 9 NNW 1018,9 25 0,0
19.07.2018 19:00:00 19,5 10,7 18 10 NNW 1018,8 10 0,0
19.07.2018 18:00:00 20,0 11,4 18 10 NNW 1018,8 10 0,0
19.07.2018 17:00:00 20,4 11,3 18 10 NNW 1018,9 10 0,0
19.07.2018 16:00:00 20,8 11,1 16 9 WNW 1019,1 10 0,0
19.07.2018 15:00:00 20,5 11,0 13 7 NW 1019,2 10 0,0
19.07.2018 14:00:00 20,2 11,2 11 6 W 1019,6 10 0,0
19.07.2018 13:00:00 18,8 12,4 9 5 WSW 1019,9 10 0,0
19.07.2018 12:00:00 18,7 11,8 13 7 NW 1020,0 10 0,0
19.07.2018 11:00:00 18,8 11,5 9 5 NW 1019,9 10 0,0
19.07.2018 10:00:00 18,8 12,2 9 5 NNE 1019,9 10 0,0
19.07.2018 09:00:00 17,6 12,5 11 6 N 1019,9 10 0,0
19.07.2018 08:00:00 15,9 12,6 8 4 WNW 1020,1 10 0,0
19.07.2018 07:00:00 14,4 11,7 8 4 W 1020,0 25 0,0
19.07.2018 06:00:00 12,6 10,8 5 3 N 1020,0 25 0,0
19.07.2018 05:00:00 12,2 10,4 9 5 NNW 1020,0 10 0,0
19.07.2018 04:00:00 12,3 10,3 9 5 NNW 1020,1 25 0,0
19.07.2018 03:00:00 12,6 10,4 9 5 NNW 1020,2 25 0,0
19.07.2018 02:00:00 13,0 10,8 11 6 NNW 1020,4 25 0,0
19.07.2018 01:00:00 14,9 11,3 11 6 NW 1020,5 25 0,0
19.07.2018 00:00:00 15,6 11,4 11 6 NW 1020,3 25 0,0
18.07.2018 23:00:00 15,7 11,2 11 6 NNW 1020,2 10 0,0
18.07.2018 22:00:00 16,2 10,9 11 6 NW 1020,1 10 0,0
18.07.2018 21:00:00 17,7 10,6 13 7 NW 1019,8 10 0,0
18.07.2018 20:00:00 19,1 9,7 11 6 NW 1019,6 10 0,0
18.07.2018 19:00:00 19,7 10,1 11 6 NNW 1019,3 10 0,0
18.07.2018 18:00:00 19,9 10,1 11 6 NW 1019,3 10 0,0
18.07.2018 17:00:00 20,2 11,8 8 4 NNW 1019,0 25 0,0
18.07.2018 16:00:00 20,1 12,8 11 6 W 1019,1 10 0,0
18.07.2018 15:00:00 20,2 13,4 11 6 SW 1018,9 10 0,0
18.07.2018 14:00:00 19,0 13,5 11 6 WSW 1018,9 10 0,0
18.07.2018 13:00:00 20,0 11,8 8 4 NNE 1018,7 10 0,0
18.07.2018 12:00:00 18,6 12,6 8 4 W 1018,7 10 0,0
18.07.2018 11:00:00 18,5 12,4 11 6 WSW 1018,6 10 0,0
18.07.2018 10:00:00 19,0 14,1 8 4 SW 1018,5 10 0,0
18.07.2018 09:00:00 18,1 12,9 5 3 NNW 1018,4 10 0,0
18.07.2018 08:00:00 16,9 14,8 4 2 NNW 1018,1 10 0,0
18.07.2018 07:00:00 16,0 14,3 9 5 SSE 1017,6 10 0,0
18.07.2018 06:00:00 15,9 14,1 8 4 S 1017,5 10 0,0
18.07.2018 05:00:00 15,6 14,3 8 4 S 1017,4 18 0,0
18.07.2018 04:00:00 15,5 13,5 9 5 S 1017,4 10 0,0
18.07.2018 03:00:00 15,7 14,4 13 7 SW 1017,5 20 0,0
18.07.2018 02:00:00 16,3 14,4 9 5 SSW 1017,8 20 0,0
18.07.2018 01:00:00 16,2 13,8 8 4 SSW 1017,9 20 0,0
18.07.2018 00:00:00 16,2 14,1 4 2 WSW 1018,1 20 0,0
17.07.2018 23:00:00 16,9 14,1 11 6 WSW 1018,0 10 0,0
17.07.2018 22:00:00 16,7 13,9 8 4 WSW 1018,0 10 0,0
17.07.2018 21:00:00 17,4 14,0 9 5 SW 1017,7 10 0,0
17.07.2018 20:00:00 17,6 13,3 11 6 SW 1017,6 10 0,0
17.07.2018 19:00:00 17,7 12,7 11 6 SW 1017,4 10 0,0
17.07.2018 18:00:00 18,6 13,0 15 8 SW 1017,5 30 0,0
17.07.2018 17:00:00 18,4 13,1 11 6 SW 1017,6 10 0,0
17.07.2018 16:00:00 18,9 12,8 11 6 SW 1017,7 10 0,0
17.07.2018 15:00:00 19,5 13,7 11 6 SW 1017,9 10 0,0
17.07.2018 14:00:00 18,0 12,4 11 6 SW 1017,9 10 0,0
17.07.2018 13:00:00 19,6 11,7 22 12 SW 1018,0 10 0,0
17.07.2018 12:00:00 18,1 10,6 11 6 WSW 1017,9 10 0,0
17.07.2018 11:00:00 18,1 11,7 8 4 SW 1017,9 10 0,0
17.07.2018 10:00:00 15,1 13,5 22 12 NW 1018,3 8 0,0
17.07.2018 09:00:00 16,3 12,6 8 4 WSW 1017,7 10 0,4
17.07.2018 08:00:00 14,7 13,3 13 7 WSW 1017,9 4,5 0,0
17.07.2018 07:00:00 15,2 11,2 8 4 WSW 1017,4 20 0,0
17.07.2018 06:00:00 14,9 11,1 11 6 WNW 1017,1 10 0,0
17.07.2018 05:00:00 15,0 12,8 8 4 WSW 1017,1 10 0,0
17.07.2018 04:00:00 14,3 12,6 9 5 W 1017,2 10 0,0
17.07.2018 03:00:00 14,3 12,1 8 4 WSW 1017,2 10 0,0
17.07.2018 02:00:00 14,9 12,2 9 5 W 1017,4 10 0,0
17.07.2018 01:00:00 15,4 12,7 9 5 WNW 1017,5 20 0,0
17.07.2018 00:00:00 15,6 13,1 8 4 W 1017,6 20 0,0
16.07.2018 23:00:00 15,8 12,2 9 5 W 1017,5 10 0,0
16.07.2018 22:00:00 16,3 12,6 8 4 W 1017,3 10 0,0
16.07.2018 21:00:00 16,8 11,7 13 7 WNW 1016,8 10 0,0
16.07.2018 20:00:00 19,0 10,8 13 7 W 1016,2 10 0,0
16.07.2018 19:00:00 18,7 10,6 15 8 WNW 1016,0 10 0,0
16.07.2018 18:00:00 19,0 10,5 15 8 NW 1015,6 10 0,0
16.07.2018 17:00:00 19,2 10,9 16 9 NW 1015,6 10 0,0
16.07.2018 16:00:00 19,5 11,6 13 7 NW 1015,5 10 0,0
16.07.2018 15:00:00 19,4 12,1 15 8 WNW 1015,5 10 0,0
16.07.2018 14:00:00 19,7 13,5 13 7 WNW 1015,5 12 0,0
16.07.2018 13:00:00 19,8 13,6 16 9 NW 1015,3 10 0,0
16.07.2018 12:00:00 18,9 14,8 15 8 NNW 1015,1 10 0,0
16.07.2018 11:00:00 18,1 16,1 16 9 NW 1015,1 18 0,4
16.07.2018 10:00:00 17,2 16,5 13 7 NW 1014,8 2,0 2,4
16.07.2018 09:00:00 17,5 16,6 5 3 SW 1014,4 10 1,6
16.07.2018 08:00:00 17,6 17,4 13 7 WSW 1014,5 4,0 0,0
16.07.2018 07:00:00 17,1 16,0 8 4 SSW 1014,4 10 0,0
16.07.2018 06:00:00 16,8 16,0 5 3 SSW 1014,5 12 0,0
16.07.2018 05:00:00 16,9 15,8 5 3 SSW 1014,6 10 0,0
16.07.2018 04:00:00 17,2 15,8 8 4 S 1014,9 10 0,0
16.07.2018 03:00:00 17,4 16,0 5 3 SSW 1015,1 10 0,0
16.07.2018 02:00:00 17,7 16,3 4 2 S 1015,5 12 0,0
16.07.2018 01:00:00 17,9 16,5 8 4 SW 1015,8 12 0,0
16.07.2018 00:00:00 17,8 16,6 5 3 WSW 1016,1 11 0,0
15.07.2018 23:00:00 18,0 16,2 9 5 SW 1016,0 13 0,0
15.07.2018 22:00:00 18,2 16,0 11 6 SSW 1015,9 15 0,0
15.07.2018 21:00:00 19,3 15,3 11 6 SSW 1015,7 21 0,0
15.07.2018 20:00:00 19,7 15,2 11 6 SSW 1015,7 23 0,0
15.07.2018 19:00:00 20,9 14,9 15 8 SSW 1015,7 20 0,0
15.07.2018 18:00:00 21,2 14,1 18 10 SW 1016,1 21 0,0
15.07.2018 17:00:00 22,3 14,5 18 10 SSW 1016,3 21 0,0
15.07.2018 16:00:00 22,3 13,5 21 11 SW 1016,5 25 0,0
15.07.2018 15:00:00 22,9 13,7 18 10 S 1016,5 24 0,0
15.07.2018 14:00:00 21,7 13,1 22 12 SSW 1016,8 26 0,0
15.07.2018 13:00:00 22,9 12,8 18 10 SSW 1017,0 26 0,0
15.07.2018 12:00:00 22,1 12,5 18 10 SSW 1017,4 26 0,0
15.07.2018 11:00:00 20,8 13,7 16 9 SSW 1017,6 24 0,0
15.07.2018 10:00:00 21,1 13,5 11 6 SSW 1017,4 10 0,0
15.07.2018 09:00:00 19,1 14,2 9 5 SSE 1017,7 10 0,0
15.07.2018 08:00:00 17,3 16,0 5 3 E 1018,0 8 0,0
15.07.2018 07:00:00 14,5 14,1 8 4 E 1018,1 8 0,0
15.07.2018 06:00:00 12,2 11,2 8 4 E 1018,0 14 0,0
15.07.2018 05:00:00 12,3 11,7 8 4 E 1018,1 12 0,0
15.07.2018 04:00:00 12,4 11,9 11 6 E 1018,4 12 0,0
15.07.2018 03:00:00 12,8 11,9 8 4 ENE 1018,6 15 0,0
15.07.2018 02:00:00 13,7 13,1 8 4 NE 1018,8 14 0,0
15.07.2018 01:00:00 13,8 12,7 9 5 NNE 1019,1 13 0,0
15.07.2018 00:00:00 14,4 13,1 8 4 N 1019,5 15 0,0
14.07.2018 23:00:00 16,6 14,4 8 4 NNW 1019,7 19 0,0
14.07.2018 22:00:00 17,1 14,5 8 4 N 1019,7 21 0,0
14.07.2018 21:00:00 18,9 14,2 13 7 NNW 1019,5 27 0,0
14.07.2018 20:00:00 20,2 13,6 16 9 NNW 1019,7 29 0,0
14.07.2018 19:00:00 21,4 13,9 9 5 W 1019,7 28 0,0
14.07.2018 18:00:00 21,2 14,9 15 8 SW 1020,0 26 0,0
14.07.2018 17:00:00 21,0 14,2 15 8 WSW 1020,1 27 0,0
14.07.2018 16:00:00 21,0 15,1 15 8 WSW 1020,4 24 0,0
14.07.2018 15:00:00 21,4 15,6 21 11 SW 1020,7 24 0,0
14.07.2018 14:00:00 20,9 16,1 21 11 SW 1021,1 21 0,0
14.07.2018 13:00:00 19,7 15,6 18 10 SW 1021,4 18 0,0
14.07.2018 12:00:00 19,8 15,7 18 10 SSW 1021,6 10 0,0
14.07.2018 11:00:00 20,4 15,9 15 8 SW 1021,6 21 0,0
14.07.2018 10:00:00 20,9 15,0 8 4 NNE 1021,5 20 0,0
14.07.2018 09:00:00 18,8 16,0 8 4 NNW 1021,7 17 0,0
14.07.2018 08:00:00 17,1 15,3 4 2 WNW 1021,7 15 0,0
14.07.2018 07:00:00 15,4 13,9 4 2 NNW 1021,6 11 0,0
14.07.2018 06:00:00 14,7 13,3 0 0 N 1021,6 12 0,0
14.07.2018 05:00:00 13,9 12,8 8 4 NE 1022,0 12 0,0
14.07.2018 04:00:00 12,9 11,7 8 4 NNE 1022,1 12 0,0

tt = Température de l'air
td = dewpoint
ff = Vitesse du vent
dd = Direction du vent
ppp = reduced air pressure
vv = visibility
rr = Quantités de précipitations

stations d'obs. à proximité